Weather in Matyshevo

Russia / Volgograd Oblast     50°49′24″N   44°11′44″E
temp.,
°C
wind,
m/s
gust,
m/s
humid.,
%
clouds,
%
prec.,
mm/h
press.,
hPa
HPBL,
m
25 february, thu
thu2500:00−21wsw228491 0.0 104028
03:00−19ssw238194 0.0 103899
06:00−17ssw4783100 0.0 1036253
09:00−14ssw6994100 0.4 1034407
12:00−11ssw81293100 0.9 1031531
15:00−10sw71394100 1.8 1027556
18:00−8sw81493100 1.3 1023486
21:00−6sw81494100 2.8 1020483
26 february, fri
fri2600:00−3wsw61195100 0.8 1017344
03:00+1wnw61298100 0.9 1017375
06:00+1w4898100 0.1 1016209
09:00+1w4899100 0.3 1017215
12:00+1w59100100 0.1 1016245
15:00+1w61299100 0.6 1015312
18:00+1wsw61298100 0.0 1013334
21:00+2w71598100 0.1 1012413
27 february, sat
sat2700:00+2wsw81697100 0.2 1009473
03:00+2w71497100 0.3 1009452
06:00+1w61296100 0.0 1007466
09:00+1w61294100 0.0 1007553
12:00+1w71299100 0.1 1006563
15:00+1w61196100 0.1 1006656
18:000w7119696 0.1 1006576
21:000w7129798 0.3 1006559
28 february, sun
sun2800:000wnw61298100 0.2 1006654
03:00−1nw6119797 0.5 1007454
06:00−7nnw499261 0.1 1009416
09:00−8nnw588734 0.1 1011497
12:00−7nnw578678 0.0 1013519
15:00−7nnw578888 0.0 1014544
18:00−9nnw5890100 0.0 1016502
21:00−10nnw499382 0.0 1019414
1 march, mon
mon100:00−11nnw489313 0.0 1020315
03:00−12nnw36948 0.0 1022239
06:00−12nnw379415 0.0 1023263
09:00−11nnw478911 0.0 1025417
12:00−10nnw468677 0.0 1026467
15:00−9nnw578665 0.0 1027474
18:00−11nw489337 0.0 1028311
21:00−12nw369421 0.0 1029139